Retour au catalogue

QIANFAN-160

ActifCommunicationsPO
NORAD 69119·PAYLOAD·🇨🇳 China

Lancé May 17, 2026 depuis Wenchang Space Launch Site

Loading…

Prochains Passages (prochaines 24 heures)

TLE

FraisSource: Space-Track

Époque: Sep 14, 2026, 21:17 UTC

1 69119U 26108R   26257.88735968  .00000099  00000-0  13504-3 0  9993
2 69119  89.0194  13.0742 0002362 107.5695 252.5714 13.51022903 16562

Suivez QIANFAN-160 en temps réel avec AllMySat

Download on the App Store